COSMOS 2520             
1 42907U 17046A   19266.15307161  .00000127  00000-0  00000+0 0  9997
2 42907   0.0242 119.6942 0001947 271.2329  70.7894  1.00274789  7731
BREEZE-M DEB [TANK]     
1 42908U 17046B   19265.65059481 -.00000011  00000-0 -46002-3 0  9991
2 42908  48.4771  94.4217 7123661 193.3972 126.5616  2.30230960 17575
BREEZE-M R/B            
1 42909U 17046C   19264.13582503 -.00000131  00000-0  00000+0 0  9996
2 42909   1.9147  88.2831 0678266 101.2259 267.2303  0.90332037  6908